Probability
0 0 0 0 0 0 0 0 0 0 0 0 0 0 0 0 0 0 0 0 0 0 0 0 0 0 0 0 0 0 0 0 0 0 0 0 0 0 0 0 0 0 0 0
0 0 0 0 0 0 0 0 0 0 0 0 0 0 0 0 0 0 0 0 0 0 0 0 0 0 0 0 0 0 0 0 0 0 0 0 0 0 0 0 0 0 0 0
0 0 0 0 0 0 0 0 0 0 0 0 0 0 0 0 0 0 0 0 0 0 0 0 0 0 0 0 0 0 0 0 0 0 0 0 0 0 0 0 0 0 0 0
0 0 0 0 0 0 0 0 0 0 0 0 0 0 0 0 0 0 0 0 0 0 0 0 0 0 0 0 0 0 0 0 0 0 0 0 0 0 0 0 0 0 0 0
0 0 0 0 0 0 0 0 0 0 0 0 0 0 0 0 0 0 0 0 0 0 0 0 0 0 0 0 0 0 0 0 0 0 0 0 0 0 0 0 0 0 0 0
0 0 0 0 0 0 0 0 0 0 0 0 0 0 0 0 0 0 0 0 0 0 0 0 0 0 0 0 0 0 0 0 0 0 0 0 0 0 0 0 0 0 0 0
0 0 0 0 0 0 0 0 0 0 0 0 0 0 0 0 0 0 0 0 0 1 0 0 0 0 0 0 0 0 0 0 0 0 0 0 0 0 0 0 0 0 0 0
0 0 0 0 0 0 0 0 0 0 0 0 0 0 0 0 0 0 0 0 1 1 0 0 0 0 0 0 0 0 0 0 0 0 0 0 0 0 0 0 0 0 0 0
0 0 0 0 0 0 0 0 0 0 0 0 0 0 0 0 0 0 0 0 1 0 0 0 0 0 0 0 0 0 0 0 0 0 0 0 0 0 0 0 0 0 0 0
0 0 0 0 0 0 0 0 0 0 0 0 0 0 0 0 0 0 0 0 0 0 0 0 0 0 0 0 0 0 0 0 0 0 0 0 0 0 0 0 0 0 0 0
0 0 0 0 0 0 0 0 0 0 0 0 0 0 0 0 0 0 0 0 0 0 0 0 0 0 0 0 0 0 0 0 0 0 0 0 0 0 0 0 0 0 0 0
0 0 0 0 0 0 0 0 0 0 0 0 0 0 0 0 0 0 0 0 0 0 0 0 0 0 0 0 0 0 0 0 0 0 0 0 0 0 0 0 0 0 0 0
0 0 0 0 0 0 0 0 0 0 0 0 0 0 0 0 0 0 0 0 0 0 0 0 0 0 0 0 0 0 0 0 0 0 0 0 0 0 0 0 0 0 0 0
0 0 0 0 0 0 0 0 0 0 0 0 0 0 0 0 0 0 0 0 0 0 0 0 0 0 0 0 0 0 0 1 1 0 0 0 0 0 0 0 0 0 0 0
0 0 0 0 0 0 0 0 0 0 0 0 0 0 0 0 0 0 0 0 0 0 0 0 0 0 0 0 0 0 1 2 2 1 0 0 0 0 0 0 0 0 0 0
0 0 0 0 0 0 0 0 0 0 0 0 0 0 0 0 0 0 0 0 0 0 0 0 0 0 0 0 0 0 1 2 2 1 0 0 0 0 0 0 0 0 0 0
0 0 0 0 0 0 0 0 0 0 0 0 0 0 0 0 0 0 0 0 0 0 0 0 0 0 0 0 0 0 0 1 1 1 0 0 0 0 0 0 0 0 0 0
0 0 0 0 0 0 0 0 0 0 0 0 0 0 0 0 0 0 0 0 0 0 0 0 0 0 0 0 0 0 0 0 0 0 0 0 0 0 0 0 0 0 0 0
0 0 0 0 0 0 0 0 0 0 0 0 0 0 0 0 0 0 0 0 0 0 0 0 0 0 0 0 0 0 0 0 0 0 0 0 0 0 0 0 0 0 0 0
0 0 0 0 0 0 0 0 0 0 0 0 0 0 0 0 0 0 0 0 0 0 0 0 0 0 0 0 0 0 0 0 0 0 0 0 0 0 0 0 0 0 0 0
0 0 0 0 0 0 0 0 0 0 0 0 0 0 0 0 0 0 0 0 0 0 0 0 0 0 0 0 0 0 0 0 0 0 0 0 1 0 0 0 0 0 0 0
0 0 0 0 0 0 0 0 0 0 0 0 0 0 0 0 0 0 0 0 0 0 0 0 0 0 0 0 0 0 0 0 0 0 0 0 0 0 0 0 0 0 0 0
0 0 0 0 0 0 0 0 0 0 0 0 0 0 0 0 0 0 0 0 0 0 0 0 0 0 0 0 0 0 0 0 0 0 0 0 0 0 0 0 0 0 0 0
0 0 0 0 0 0 0 0 0 0 0 0 0 0 0 0 0 0 0 0 0 0 0 0 0 0 0 0 0 0 0 0 0 0 0 0 0 0 0 0 0 0 0 0
0 0 0 0 0 0 0 0 0 0 0 0 0 0 0 0 0 0 0 0 0 0 0 0 0 0 0 0 0 0 0 0 0 0 0 0 0 0 0 0 0 0 0 0
0 0 0 0 0 0 0 0 0 0 0 0 0 0 0 0 0 0 0 0 0 0 0 0 0 0 0 0 0 0 0 0 0 0 0 0 0 0 0 0 0 0 0 0
Wind_Speed
1 3 2 5 6 5 3 2 2 4 3 4 5 5 7 7 8 9 8 7 8 7 5 5 7 8 8 6 6 6 6 5 5 3 3 3 2 2 2 3 4 4 4 4
2 3 8 6 4 3 2 1 1 2 1 3 4 5 6 8 10 11 12 11 10 7 5 6 7 7 8 7 6 6 6 5 5 3 3 3 3 2 1 2 3 4 4 4
5 6 5 5 3 2 1 2 3 2 2 2 2 2 3 4 4 6 9 10 10 12 11 9 8 7 7 8 8 7 6 6 5 5 4 4 3 3 3 3 2 3 4 4
4 5 3 3 3 3 1 2 2 2 2 2 2 2 6 6 6 7 9 9 11 11 11 10 9 8 8 8 7 7 6 6 6 6 6 6 4 2 1 1 1 2 3 3
3 3 3 3 3 3 4 2 1 1 2 0 1 2 6 3 7 10 11 11 11 12 12 12 10 9 8 8 8 7 6 6 5 6 7 6 4 2 1 1 2 2 3 3
5 3 3 4 2 3 3 4 4 4 4 2 4 4 6 6 10 11 12 12 12 11 11 10 9 8 7 7 8 7 7 6 5 6 6 6 6 4 4 3 2 1 1 2
2 2 1 3 3 2 4 5 3 4 2 5 3 3 8 8 9 12 14 13 12 11 10 10 9 8 9 9 9 8 8 6 6 6 6 6 6 6 5 4 3 2 1 1
3 4 4 4 5 5 3 7 5 3 3 4 2 4 7 5 5 7 9 11 12 12 11 11 11 10 10 10 9 8 8 7 6 6 5 5 5 4 3 4 4 3 2 2
4 4 3 3 4 7 4 3 5 4 1 2 4 4 5 3 3 5 7 9 11 13 12 12 11 11 10 10 10 10 9 7 6 6 5 4 5 4 4 4 3 3 2 2
5 3 2 2 3 2 5 6 4 3 1 2 4 3 3 3 2 5 7 9 10 12 12 11 10 11 10 10 8 9 9 8 6 6 6 5 5 5 5 4 4 3 3 2
4 4 1 1 4 5 3 3 4 3 4 3 2 6 5 5 5 6 8 9 11 12 12 11 10 10 10 9 8 8 8 7 6 6 5 5 5 4 5 4 4 4 3 4
4 5 2 4 4 5 5 6 6 4 3 3 2 7 6 4 4 6 7 8 8 10 10 10 10 10 9 9 9 8 8 8 7 6 6 6 5 4 4 4 3 4 4 4
5 6 3 3 4 1 2 4 5 5 4 3 3 7 5 1 3 4 6 7 8 9 9 9 10 10 10 10 10 9 8 8 7 7 7 6 5 5 5 4 3 3 4 4
6 5 6 8 6 5 4 4 5 6 4 4 6 6 5 4 3 3 5 7 8 9 10 11 10 10 11 10 10 10 9 8 8 7 7 7 6 6 5 4 4 4 4 5
5 4 4 5 5 4 5 7 7 6 8 7 7 7 8 7 7 6 5 6 8 9 10 12 12 11 11 10 9 9 9 8 8 8 7 7 6 5 5 5 4 4 4 5
3 3 2 2 4 4 5 7 8 8 7 7 6 7 7 5 4 4 5 6 8 9 11 11 12 12 12 12 11 10 9 9 9 9 8 6 6 6 5 5 5 4 4 4
2 4 3 2 3 2 5 7 8 7 7 8 9 9 5 3 5 7 8 8 9 10 10 11 12 13 13 13 12 12 11 9 9 9 8 7 7 6 6 6 5 5 4 4
5 4 3 2 1 4 8 4 5 6 7 7 6 6 7 7 6 5 7 9 8 9 10 10 10 11 10 10 10 10 10 10 10 9 8 7 7 7 6 6 6 5 4 4
6 7 4 3 3 5 7 3 4 4 5 5 6 6 5 5 2 2 4 7 9 10 9 9 9 10 10 11 11 10 10 9 9 9 9 8 8 8 7 7 6 5 4 4
4 5 5 4 3 6 7 4 1 3 3 4 5 6 6 5 3 5 5 6 6 6 6 7 7 7 9 10 10 11 10 10 10 10 9 8 8 8 8 7 6 4 4 4
3 3 4 4 4 7 7 4 2 3 6 4 3 5 6 6 7 5 4 4 6 6 6 7 8 8 8 9 10 10 10 10 10 8 7 7 7 8 7 6 4 5 4 4
6 5 5 4 4 8 4 1 4 5 3 2 1 3 5 5 4 3 4 5 6 6 6 8 8 7 7 9 10 10 9 9 7 7 7 7 7 7 6 6 5 5 5 5
5 6 6 7 7 5 3 4 4 3 2 1 1 1 5 5 4 4 4 5 5 6 7 7 8 7 6 7 10 10 8 7 8 8 7 6 7 5 6 7 6 5 4 4
3 1 3 2 4 3 3 1 1 0 1 2 2 4 5 6 5 5 5 4 5 5 6 6 8 8 6 6 7 8 7 8 9 9 7 6 6 5 5 4 5 5 5 4
4 2 2 2 3 3 2 1 1 1 2 2 2 2 5 7 6 5 5 5 5 5 5 6 8 8 7 7 6 6 7 9 10 9 7 6 5 5 5 4 3 4 4 6
4 5 5 5 5 3 5 4 1 1 1 2 3 3 3 5 6 5 5 5 5 5 5 6 6 7 6 7 6 6 7 9 10 8 7 6 5 5 5 5 3 4 3 4
Wind_Direction
156 92 209 219 201 199 212 224 256 242 212 169 192 203 196 186 174 175 180 181 176 180 181 155 151 142 132 133 134 133 127 126 117 108 103 95 78 55 47 50 62 67 70 75
55 243 230 216 216 201 212 216 289 300 239 166 193 220 203 192 190 186 184 184 180 173 164 157 152 149 146 147 145 138 138 135 130 130 131 129 122 95 73 47 48 55 66 71
193 233 210 197 204 175 231 200 219 213 4 25 112 308 246 226 200 191 190 188 179 176 172 168 163 162 155 153 156 152 147 138 135 129 111 91 67 48 40 40 34 32 59 69
229 239 190 168 187 155 240 252 200 163 117 265 160 248 263 216 207 198 193 189 187 183 175 172 171 171 169 165 157 147 146 139 138 131 127 129 128 134 172 148 76 45 52 64
243 205 176 187 209 167 201 220 109 153 141 320 261 203 271 191 206 212 201 195 192 187 179 175 175 175 171 159 149 150 145 140 141 138 137 132 135 150 141 97 86 58 39 49
237 236 186 187 172 153 144 56 38 44 70 294 234 192 264 215 209 205 201 198 194 186 182 178 174 165 157 149 146 150 147 147 146 141 141 143 149 146 134 126 117 81 45 35
290 275 214 141 109 62 89 83 36 3 5 257 246 203 247 233 210 199 195 195 189 181 177 175 171 164 158 153 151 154 152 153 153 147 151 156 157 156 157 160 158 145 113 73
194 254 226 177 162 170 163 139 155 194 227 277 293 232 261 259 206 187 184 180 175 176 177 177 176 169 163 159 156 157 159 160 158 156 164 164 160 156 159 163 161 163 165 172
184 240 243 196 162 145 146 171 170 147 252 268 281 285 312 7 96 139 154 166 176 179 179 178 173 168 164 165 164 164 164 167 166 165 163 167 165 158 159 159 155 159 166 153
166 205 239 191 111 131 154 155 108 123 169 272 293 279 254 257 201 167 171 177 180 178 178 176 171 170 167 171 166 166 167 172 171 166 169 168 167 164 158 149 154 164 164 138
150 154 256 149 181 184 143 141 129 140 163 166 269 277 241 219 206 188 189 188 183 178 178 175 173 173 169 168 166 168 166 163 163 165 163 155 162 160 149 150 157 159 154 149
150 130 190 240 247 189 164 175 154 156 210 176 187 268 274 226 202 188 186 185 180 180 178 173 172 169 166 171 171 170 168 166 168 163 155 155 158 151 148 153 156 155 155 155
138 120 110 337 329 297 190 189 167 146 139 169 184 262 295 247 196 189 179 179 177 176 176 172 172 174 174 177 174 172 171 171 164 156 154 154 156 157 162 163 155 152 149 144
124 132 165 192 213 198 213 215 175 150 171 205 217 243 276 255 219 199 183 178 176 178 178 175 178 181 179 178 175 172 173 169 162 157 160 164 169 172 171 165 154 150 143 142
118 158 196 220 227 198 217 223 204 192 192 196 224 230 245 233 217 203 193 176 169 176 182 182 182 181 177 178 177 173 171 167 162 159 165 175 173 169 159 154 152 146 138 142
108 156 173 267 250 234 246 237 219 212 204 208 224 249 241 228 202 192 194 185 178 183 187 186 185 181 180 180 178 173 172 169 162 164 172 172 164 164 161 159 151 143 139 134
158 133 133 252 291 358 260 228 211 210 206 192 216 233 215 195 193 194 190 185 187 187 185 185 187 185 184 182 178 177 175 167 164 169 170 168 165 165 168 159 149 150 151 139
163 140 145 186 51 236 247 239 197 203 227 209 205 213 195 198 203 198 189 183 188 187 187 186 184 182 182 177 172 169 164 164 166 169 170 171 166 169 166 156 158 160 153 150
172 151 147 155 197 269 285 261 175 181 247 219 203 220 207 186 137 288 218 191 188 186 184 184 181 173 168 169 167 159 162 165 167 174 177 176 171 168 164 164 168 167 153 155
142 134 138 150 174 231 249 269 231 108 264 254 196 203 193 152 156 241 221 187 183 176 168 165 160 152 158 166 160 157 164 166 177 183 180 174 171 168 171 176 171 160 154 162
143 130 155 173 202 250 253 262 73 137 242 270 210 188 175 181 197 205 182 170 166 159 157 154 149 154 162 159 154 158 164 178 184 177 168 165 169 171 171 167 161 152 149 147
176 165 176 165 192 242 256 147 173 219 255 275 232 173 163 167 153 145 146 149 146 140 141 146 146 151 155 155 154 160 175 182 167 156 157 163 167 170 162 154 157 151 147 147
194 182 177 186 212 239 229 212 223 191 202 234 195 186 145 133 128 127 131 132 141 146 147 146 142 139 143 154 157 163 176 164 152 151 158 161 162 165 158 157 157 149 151 155
268 163 141 205 262 266 272 280 316 207 207 227 175 151 137 131 129 124 129 129 129 134 142 139 134 136 144 154 155 161 158 152 150 155 161 160 156 151 149 152 156 156 162 166
225 166 140 212 274 329 315 275 223 8 39 79 71 111 130 125 121 127 135 135 132 125 129 134 140 144 150 150 147 150 151 148 150 156 159 155 150 149 143 140 150 163 175 178
209 180 169 208 222 207 250 256 225 139 180 155 129 98 103 124 125 121 130 132 128 125 125 128 134 139 144 142 142 146 148 150 151 151 153 154 151 150 145 136 106 65 97 142